This is the latest recevied weather packets stored in our database for station/object N5GMJ. If no packets are shown the sender has not sent any weather packets the latest 10 day(s).
| Time | Temp. | Humidity | Pressure | Rain* | Wind** | Luminosity | Snow |
|---|---|---|---|---|---|---|---|
| 1787594675 | 41.67° C | 25% | 1014.9 hPa | 0 mm | - | - | - |
| 1787594373 | 42.78° C | 24% | 1015.1 hPa | 0 mm | - | - | - |
| 1787594068 | 42.22° C | 24% | 1014.9 hPa | 0 mm | - | - | - |
| 1787593763 | 41.67° C | 25% | 1014.9 hPa | 0 mm | - | - | - |
| 1787593458 | 42.78° C | 24% | 1015 hPa | 0 mm | - | - | - |
| 1787593154 | 41.67° C | 25% | 1015.2 hPa | 0 mm | - | - | - |
| 1787592853 | 41.11° C | 25% | 1015 hPa | 0 mm | - | - | - |
| 1787592548 | 41.11° C | 25% | 1015.2 hPa | 0 mm | - | - | - |
| 1787592247 | 41.67° C | 25% | 1015.3 hPa | 0 mm | - | - | - |
| 1787591944 | 41.67° C | 25% | 1015.3 hPa | 0 mm | - | - | - |
| 1787591639 | 41.11° C | 26% | 1015.1 hPa | 0 mm | - | - | - |
| 1787591336 | 40.56° C | 26% | 1015.3 hPa | 0 mm | - | - | - |
| 1787591035 | 41.11° C | 26% | 1015.4 hPa | 0 mm | - | - | - |
| 1787590731 | 40.56° C | 27% | 1015.4 hPa | 0 mm | - | - | - |
| 1787590427 | 40° C | 27% | 1015.4 hPa | 0 mm | - | - | - |
| 1787590122 | 40° C | 27% | 1015.4 hPa | 0 mm | - | - | - |
| 1787589817 | 39.44° C | 28% | 1015.4 hPa | 0 mm | - | - | - |
| 1787589513 | 39.44° C | 27% | 1015.7 hPa | 0 mm | - | - | - |
| 1787589208 | 40° C | 27% | 1015.7 hPa | 0 mm | - | - | - |
| 1787588903 | 39.44° C | 28% | 1015.6 hPa | 0 mm | - | - | - |
| 1787588599 | 40° C | 28% | 1015.7 hPa | 0 mm | - | - | - |
| 1787588294 | 39.44° C | 28% | 1015.6 hPa | 0 mm | - | - | - |
| 1787587990 | 38.89° C | 29% | 1015.9 hPa | 0 mm | - | - | - |
| 1787587685 | 38.33° C | 29% | 1015.6 hPa | 0 mm | - | - | - |
| 1787587380 | 38.33° C | 30% | 1015.6 hPa | 0 mm | - | - | - |
* Rain latest hour (hover to see other rain measurements)
** Current wind speed in m/s (hover to see current wind gust speed)